Juan de Fuca Strait - west entrance: Past 24 Hour Conditions

 

Saturna Island

06:00 AM PDT 17 April 2014
This table is a summary of hourly weather conditions for the past 24 hours.
Date / Time
(PDT)
Wind(knots) Conditions Visibility(km) Pressure(kPa) Air tempC) Relative humidity(%) Dew pointC)
17 April 2014
6:00 WSW 3 N/A N/A 101.0 9 94 8
5:00 WSW 4 N/A N/A 101.0 9 94 8
4:00 ENE 3 N/A N/A 101.0 9 94 8
3:00 SW 12 N/A N/A 101.0 9 94 8
2:00 SSW 21 N/A N/A 101.0 10 94 9
1:00 S 12 N/A N/A 101.1 10 94 9
0:00 SE 8 N/A N/A 101.2 9 95 8
16 April 2014
23:00 SE 10 N/A N/A 101.3 9 94 8
22:00 S 10 N/A N/A 101.3 9 94 9
21:00 SSW 9 N/A N/A 101.4 9 94 9
20:00 SSW 9 N/A N/A 101.4 10 93 9
19:00 SSW 6 N/A N/A 101.4 10 91 8
18:00 SSW 11 N/A N/A 101.5 10 88 8
17:00 SSW 14 N/A N/A 101.5 10 85 8
16:00 S 14 N/A N/A 101.5 10 87 8
15:00 S 15 N/A N/A 101.5 10 87 8
14:00 S 10 N/A N/A 101.6 10 88 8
13:00 SSW 12 N/A N/A 101.6 10 88 8
12:00 SSE 8 N/A N/A 101.6 10 92 8
11:00 SE 12 N/A N/A 101.6 9 93 8
10:00 SSW 7 N/A N/A 101.7 9 93 8
9:00 SSW 8 N/A N/A 101.6 9 94 8
8:00 SSW 16 N/A N/A 101.6 9 94 8
7:00 SSW 15 N/A N/A 101.6 8 94 7
6:00 SSW 13 N/A N/A 101.6 8 94 7
 
Map of Pacific - Georgia Basin marine weather areas Tsawwassen Ferry Terminal Sentry Shoal - 46131 Halibut Bank - 46146 La Perouse Bank - 46206 Discovery Island Esquimalt Harbour Kelp Reefs Malahat Race Rocks Lightstation Saturna Island Sheringham Point University of Victoria Victoria Gonzales Victoria Int'l Airport Ballenas Islands Campbell River Airport Comox Airport Entrance Island Fanny Island Nanaimo Airport Sisters Islets Estevan Point Tofino Airport Grief Point Powell River Airport Sechelt Point Atkinson Sand Heads Lightstation Vancouver Harbour Vancouver Int'l Airport West Vancouver Port Alberni Howe Sound - Pam Rocks Squamish Airport